| time (UTC) | temp F | wind direction | speed MPH | gust MPH | rain 1hr in | rain 24hr in | rain mn in | humidity % | barometer mb |
| 20260502170109 | 62 | 148 | 0.0 | 2.0 | 0.00 | 0.00 | 0.00 | 74 | 1007.8 |
| 20260502164135 | 63 | 129 | 1.0 | 4.0 | 0.00 | 0.00 | 0.00 | 72 | 1007.9 |
| 20260502163619 | 63 | 100 | 1.0 | 4.0 | 0.00 | 0.00 | 0.00 | 72 | 1008.0 |
| 20260502163106 | 63 | 104 | 2.0 | 5.0 | 0.00 | 0.00 | 0.00 | 71 | 1008.1 |
| 20260502162637 | 63 | 81 | 1.0 | 5.0 | 0.00 | 0.00 | 0.00 | 71 | 1008.1 |
| 20260502162058 | 62 | 110 | 1.0 | 4.0 | 0.00 | 0.00 | 0.00 | 72 | 1008.1 |
| 20260502161602 | 62 | 111 | 1.0 | 2.0 | 0.00 | 0.00 | 0.00 | 74 | 1008.2 |
| 20260502161147 | 62 | 136 | 1.0 | 1.0 | 0.00 | 0.00 | 0.00 | 74 | 1008.4 |
| 20260502160606 | 62 | 167 | 0.0 | 1.0 | 0.00 | 0.00 | 0.00 | 74 | 1008.3 |
| 20260502160114 | 62 | 174 | 0.0 | 1.0 | 0.00 | 0.00 | 0.00 | 75 | 1008.6 |
| 20260502152115 | 62 | 174 | 0.0 | 1.0 | 0.00 | 0.00 | 0.00 | 76 | 1009.0 |
| 20260502151559 | 62 | 181 | 0.0 | 1.0 | 0.00 | 0.00 | 0.00 | 76 | 1009.1 |
| 20260502151110 | 61 | 181 | 0.0 | 1.0 | 0.00 | 0.00 | 0.00 | 77 | 1009.2 |
| 20260502150608 | 62 | 181 | 0.0 | 1.0 | 0.00 | 0.00 | 0.00 | 77 | 1009.3 |
| 20260502150116 | 62 | 181 | 0.0 | 1.0 | 0.00 | 0.00 | 0.00 | 77 | 1009.4 |
| 20260502140115 | 63 | 181 | 0.0 | 2.0 | 0.00 | 0.00 | 0.00 | 77 | 1009.8 |
| 20260502130616 | 63 | 148 | 0.0 | 1.0 | 0.00 | 0.00 | 0.00 | 79 | 1010.5 |
| 20260502123559 | 63 | 96 | 0.0 | 3.0 | 0.00 | 0.00 | 0.00 | 78 | 1010.6 |
| 20260502123129 | 63 | 96 | 1.0 | 3.0 | 0.00 | 0.00 | 0.00 | 78 | 1010.6 |
| 20260502122609 | 63 | 101 | 0.0 | 2.0 | 0.00 | 0.00 | 0.00 | 78 | 1010.4 |
| 20260502122053 | 63 | 178 | 1.0 | 3.0 | 0.00 | 0.00 | 0.00 | 78 | 1010.4 |
| 20260502121603 | 63 | 174 | 1.0 | 3.0 | 0.00 | 0.00 | 0.00 | 78 | 1010.3 |
| 20260502121114 | 63 | 147 | 0.0 | 1.0 | 0.00 | 0.00 | 0.00 | 78 | 1010.3 |
| 20260502120600 | 63 | 130 | 0.0 | 1.0 | 0.00 | 0.00 | 0.00 | 78 | 1010.2 |
| 20260502120106 | 63 | 124 | 0.0 | 1.0 | 0.00 | 0.00 | 0.00 | 78 | 1010.3 |
| 20260502115616 | 63 | 119 | 0.0 | 1.0 | 0.00 | 0.00 | 0.00 | 78 | 1010.1 |
| 20260502115058 | 63 | 165 | 0.0 | 3.0 | 0.00 | 0.00 | 0.00 | 78 | 1010.2 |
| 20260502114608 | 63 | 169 | 1.0 | 3.0 | 0.00 | 0.00 | 0.00 | 78 | 1010.4 |
| 20260502114053 | 63 | 184 | 2.0 | 4.0 | 0.00 | 0.00 | 0.00 | 78 | 1010.4 |
| 20260502113603 | 63 | 173 | 1.0 | 4.0 | 0.00 | 0.00 | 0.00 | 78 | 1010.4 |
| 20260502113111 | 63 | 180 | 2.0 | 3.0 | 0.00 | 0.00 | 0.00 | 78 | 1010.4 |
| 20260502112555 | 64 | 174 | 1.0 | 3.0 | 0.00 | 0.00 | 0.00 | 77 | 1010.3 |
| 20260502112100 | 64 | 156 | 0.0 | 4.0 | 0.00 | 0.00 | 0.00 | 77 | 1010.3 |
| 20260502111610 | 64 | 169 | 2.0 | 4.0 | 0.00 | 0.00 | 0.00 | 76 | 1010.2 |
| 20260502111054 | 64 | 179 | 2.0 | 3.0 | 0.00 | 0.00 | 0.00 | 76 | 1010.2 |
| 20260502110602 | 64 | 191 | 1.0 | 3.0 | 0.00 | 0.00 | 0.00 | 75 | 1010.1 |
| 20260502110110 | 65 | 209 | 2.0 | 3.0 | 0.00 | 0.00 | 0.00 | 74 | 1010.1 |
| 20260502105553 | 65 | 199 | 2.0 | 3.0 | 0.00 | 0.00 | 0.00 | 73 | 1010.0 |
| 20260502105102 | 66 | 169 | 0.0 | 2.0 | 0.00 | 0.00 | 0.00 | 71 | 1009.9 |
| 20260502104553 | 66 | 169 | 0.0 | 2.0 | 0.00 | 0.00 | 0.00 | 70 | 1009.9 |
| 20260502104059 | 66 | 174 | 1.0 | 2.0 | 0.00 | 0.00 | 0.00 | 68 | 1009.8 |
| 20260502103630 | 66 | 177 | 0.0 | 2.0 | 0.00 | 0.00 | 0.00 | 67 | 1009.7 |
| 20260502103051 | 67 | 184 | 2.0 | 2.0 | 0.00 | 0.00 | 0.00 | 65 | 1009.8 |
| 20260502102601 | 67 | 158 | 1.0 | 2.0 | 0.00 | 0.00 | 0.00 | 62 | 1009.6 |
| 20260502102139 | 68 | 135 | 0.0 | 1.0 | 0.00 | 0.00 | 0.00 | 60 | 1009.9 |
| 20260502101555 | 68 | 135 | 0.0 | 1.0 | 0.00 | 0.00 | 0.00 | 59 | 1009.8 |
| 20260502101101 | 68 | 135 | 0.0 | 1.0 | 0.00 | 0.00 | 0.00 | 59 | 1009.8 |
| 20260502100634 | 68 | 135 | 0.0 | 1.0 | 0.00 | 0.00 | 0.00 | 57 | 1009.8 |
| 20260502091111 | 73 | 151 | 1.0 | 3.0 | 0.00 | 0.00 | 0.00 | 46 | 1009.4 |
| 20260502090554 | 73 | 134 | 1.0 | 4.0 | 0.00 | 0.00 | 0.00 | 46 | 1009.4 |
| 20260502080103 | 75 | 148 | 2.0 | 10.0 | 0.00 | 0.00 | 0.00 | 46 | 1009.6 |
| 20260502071110 | 76 | 160 | 3.0 | 9.0 | 0.00 | 0.00 | 0.00 | 48 | 1009.8 |
| 20260502070551 | 76 | 118 | 4.0 | 9.0 | 0.00 | 0.00 | 0.00 | 49 | 1010.0 |
| 20260502070121 | 76 | 154 | 4.0 | 10.0 | 0.00 | 0.00 | 0.00 | 48 | 1009.9 |
| 20260502065606 | 76 | 147 | 5.0 | 10.0 | 0.00 | 0.00 | 0.00 | 47 | 1010.0 |
| 20260502065114 | 77 | 165 | 4.0 | 10.0 | 0.00 | 0.00 | 0.00 | 47 | 1009.9 |
| 20260502064552 | 78 | 122 | 3.0 | 10.0 | 0.00 | 0.00 | 0.00 | 47 | 1009.8 |
| 20260502064102 | 78 | 126 | 4.0 | 8.0 | 0.00 | 0.00 | 0.00 | 46 | 1009.9 |
| 20260502063613 | 78 | 179 | 4.0 | 8.0 | 0.00 | 0.00 | 0.00 | 46 | 1009.9 |
| 20260502063053 | 78 | 126 | 2.0 | 8.0 | 0.00 | 0.00 | 0.00 | 47 | 1009.8 |
| 20260502062603 | 77 | 139 | 4.0 | 10.0 | 0.00 | 0.00 | 0.00 | 47 | 1009.8 |
| 20260502062113 | 77 | 125 | 5.0 | 10.0 | 0.00 | 0.00 | 0.00 | 46 | 1009.8 |
| 20260502061553 | 77 | 176 | 3.0 | 8.0 | 0.00 | 0.00 | 0.00 | 46 | 1009.9 |
| 20260502061102 | 77 | 157 | 2.0 | 12.0 | 0.00 | 0.00 | 0.00 | 46 | 1009.9 |
| 20260502060612 | 77 | 127 | 2.0 | 8.0 | 0.00 | 0.00 | 0.00 | 46 | 1010.0 |
| 20260502060115 | 76 | 185 | 2.0 | 10.0 | 0.00 | 0.00 | 0.00 | 47 | 1009.9 |
| 20260502055605 | 76 | 196 | 5.0 | 10.0 | 0.00 | 0.00 | 0.00 | 45 | 1010.0 |
| 20260502055115 | 76 | 134 | 3.0 | 10.0 | 0.00 | 0.00 | 0.00 | 45 | 1010.1 |
| 20260502054558 | 76 | 156 | 4.0 | 12.0 | 0.00 | 0.00 | 0.00 | 45 | 1010.2 |
| 20260502054107 | 76 | 167 | 4.0 | 10.0 | 0.00 | 0.00 | 0.00 | 44 | 1010.2 |
| 20260502053612 | 77 | 120 | 3.0 | 9.0 | 0.00 | 0.00 | 0.00 | 43 | 1010.2 |
| 20260502053052 | 77 | 133 | 3.0 | 11.0 | 0.00 | 0.00 | 0.00 | 44 | 1010.2 |
| 20260502052613 | 77 | 122 | 3.0 | 11.0 | 0.00 | 0.00 | 0.00 | 44 | 1010.2 |
| 20260502052102 | 77 | 141 | 2.0 | 11.0 | 0.00 | 0.00 | 0.00 | 44 | 1010.1 |
| 20260502051610 | 77 | 142 | 4.0 | 12.0 | 0.00 | 0.00 | 0.00 | 43 | 1010.0 |
| 20260502051053 | 77 | 127 | 4.0 | 9.0 | 0.00 | 0.00 | 0.00 | 43 | 1009.9 |
| 20260502050551 | 77 | 144 | 3.0 | 9.0 | 0.00 | 0.00 | 0.00 | 43 | 1009.9 |
| 20260502050117 | 77 | 140 | 3.0 | 11.0 | 0.00 | 0.08 | 0.00 | 42 | 1010.1 |
| 20260502045601 | 76 | 145 | 6.0 | 11.0 | 0.00 | 0.08 | 0.00 | 41 | 1010.0 |
| 20260502045141 | 77 | 158 | 3.0 | 10.0 | 0.00 | 0.08 | 0.00 | 41 | 1010.1 |
| 20260502044606 | 77 | 153 | 4.0 | 10.0 | 0.00 | 0.08 | 0.00 | 42 | 1010.3 |
| 20260502044113 | 77 | 149 | 4.0 | 9.0 | 0.00 | 0.08 | 0.00 | 42 | 1010.1 |
| 20260502043617 | 76 | 170 | 5.0 | 9.0 | 0.00 | 0.08 | 0.00 | 42 | 1010.2 |
| 20260502043058 | 76 | 154 | 3.0 | 8.0 | 0.00 | 0.08 | 0.00 | 41 | 1010.3 |
| 20260502042604 | 77 | 159 | 2.0 | 7.0 | 0.00 | 0.08 | 0.00 | 41 | 1010.3 |
| 20260502042132 | 77 | 191 | 2.0 | 7.0 | 0.00 | 0.08 | 0.00 | 40 | 1010.4 |
| 20260502041554 | 76 | 124 | 3.0 | 9.0 | 0.00 | 0.08 | 0.00 | 40 | 1010.4 |
| 20260502041103 | 76 | 146 | 3.0 | 10.0 | 0.00 | 0.08 | 0.00 | 39 | 1010.5 |
| 20260502040614 | 76 | 138 | 4.0 | 10.0 | 0.00 | 0.08 | 0.00 | 38 | 1010.6 |
| 20260502040056 | 76 | 128 | 5.0 | 11.0 | 0.00 | 0.08 | 0.00 | 36 | 1010.7 |
| 20260502035626 | 76 | 133 | 5.0 | 11.0 | 0.00 | 0.08 | 0.00 | 35 | 1010.6 |
| 20260502035124 | 76 | 123 | 6.0 | 12.0 | 0.00 | 0.08 | 0.00 | 35 | 1010.4 |
| 20260502034609 | 77 | 101 | 3.0 | 10.0 | 0.00 | 0.08 | 0.00 | 36 | 1010.4 |
| 20260502034052 | 77 | 175 | 2.0 | 13.0 | 0.00 | 0.08 | 0.00 | 37 | 1010.4 |
| 20260502033601 | 76 | 118 | 5.0 | 13.0 | 0.00 | 0.08 | 0.00 | 36 | 1010.5 |
| 20260502033109 | 76 | 155 | 6.0 | 12.0 | 0.00 | 0.08 | 0.00 | 35 | 1010.5 |
| 20260502032618 | 76 | 192 | 3.0 | 10.0 | 0.00 | 0.08 | 0.00 | 40 | 1010.4 |
| 20260502032059 | 76 | 108 | 4.0 | 10.0 | 0.00 | 0.08 | 0.00 | 40 | 1010.5 |
| 20260502031608 | 75 | 121 | 3.0 | 9.0 | 0.00 | 0.08 | 0.00 | 41 | 1010.6 |
| 20260502031115 | 75 | 64 | 3.0 | 9.0 | 0.00 | 0.08 | 0.00 | 40 | 1010.5 |
| 20260502030554 | 75 | 191 | 4.0 | 9.0 | 0.00 | 0.08 | 0.00 | 40 | 1010.5 |
| 20260502030103 | 74 | 219 | 3.0 | 8.0 | 0.00 | 0.08 | 0.00 | 44 | 1010.7 |
| 20260502025634 | 74 | 120 | 3.0 | 10.0 | 0.00 | 0.08 | 0.00 | 44 | 1010.8 |
| 20260502025117 | 74 | 128 | 4.0 | 9.0 | 0.00 | 0.08 | 0.00 | 45 | 1011.0 |
| 20260502024607 | 74 | 141 | 4.0 | 8.0 | 0.00 | 0.08 | 0.00 | 43 | 1011.0 |
| 20260502024137 | 74 | 155 | 4.0 | 7.0 | 0.00 | 0.08 | 0.00 | 48 | 1011.1 |
| 20260502023558 | 74 | 157 | 3.0 | 9.0 | 0.00 | 0.08 | 0.00 | 47 | 1011.1 |
| 20260502023104 | 74 | 129 | 3.0 | 8.0 | 0.00 | 0.08 | 0.00 | 47 | 1011.3 |
| 20260502022614 | 73 | 121 | 4.0 | 8.0 | 0.00 | 0.08 | 0.00 | 45 | 1011.3 |
| 20260502022117 | 74 | 106 | 5.0 | 8.0 | 0.00 | 0.08 | 0.00 | 44 | 1011.1 |
| 20260502021625 | 73 | 152 | 3.0 | 7.0 | 0.00 | 0.08 | 0.00 | 44 | 1011.2 |
| 20260502021114 | 73 | 100 | 3.0 | 10.0 | 0.00 | 0.08 | 0.00 | 44 | 1011.2 |
| 20260502020553 | 73 | 122 | 6.0 | 10.0 | 0.00 | 0.08 | 0.00 | 46 | 1011.2 |
| 20260502015552 | 72 | 105 | 5.0 | 10.0 | 0.00 | 0.08 | 0.00 | 52 | 1011.5 |
| 20260502015057 | 72 | 61 | 6.0 | 10.0 | 0.00 | 0.08 | 0.00 | 51 | 1011.5 |
| 20260502014606 | 73 | 148 | 2.0 | 8.0 | 0.00 | 0.08 | 0.00 | 46 | 1011.5 |
| 20260502014116 | 73 | 135 | 3.0 | 9.0 | 0.00 | 0.08 | 0.00 | 50 | 1011.4 |
| 20260502013559 | 72 | 149 | 3.0 | 11.0 | 0.00 | 0.08 | 0.00 | 48 | 1011.6 |
| 20260502013129 | 72 | 115 | 5.0 | 10.0 | 0.00 | 0.08 | 0.00 | 47 | 1011.6 |
| 20260502012617 | 72 | 115 | 5.0 | 12.0 | 0.00 | 0.08 | 0.00 | 46 | 1011.6 |
| 20260502012101 | 71 | 158 | 3.0 | 12.0 | 0.00 | 0.08 | 0.00 | 48 | 1011.6 |
| 20260502011613 | 71 | 113 | 5.0 | 12.0 | 0.00 | 0.08 | 0.00 | 48 | 1011.7 |
| 20260502011117 | 71 | 118 | 4.0 | 9.0 | 0.00 | 0.08 | 0.00 | 48 | 1011.7 |
| 20260502010605 | 70 | 56 | 5.0 | 10.0 | 0.00 | 0.08 | 0.00 | 51 | 1011.7 |
| 20260502010114 | 69 | 108 | 6.0 | 10.0 | 0.00 | 0.08 | 0.00 | 53 | 1011.5 |
| 20260502005556 | 69 | 129 | 5.0 | 13.0 | 0.00 | 0.08 | 0.00 | 52 | 1011.6 |
| 20260502005107 | 68 | 94 | 6.0 | 13.0 | 0.00 | 0.08 | 0.00 | 58 | 1011.4 |
| 20260502004616 | 67 | 94 | 6.0 | 10.0 | 0.00 | 0.08 | 0.00 | 57 | 1011.3 |
| 20260502004120 | 67 | 347 | 6.0 | 10.0 | 0.00 | 0.08 | 0.00 | 65 | 1011.5 |
| 20260502003604 | 67 | 64 | 5.0 | 10.0 | 0.00 | 0.08 | 0.00 | 67 | 1011.4 |
| 20260502003134 | 67 | 302 | 4.0 | 10.0 | 0.00 | 0.08 | 0.00 | 66 | 1011.5 |
| 20260502002555 | 67 | 77 | 3.0 | 10.0 | 0.00 | 0.08 | 0.00 | 63 | 1011.5 |
| 20260502002106 | 66 | 131 | 3.0 | 10.0 | 0.00 | 0.08 | 0.00 | 57 | 1011.4 |
| 20260502001616 | 65 | 77 | 3.0 | 9.0 | 0.00 | 0.08 | 0.00 | 67 | 1011.3 |
| 20260502001058 | 65 | 96 | 3.0 | 7.0 | 0.00 | 0.08 | 0.00 | 67 | 1011.2 |
| 20260502000607 | 65 | 16 | 4.0 | 7.0 | 0.00 | 0.08 | 0.00 | 65 | 1011.3 |
| 20260502000117 | 67 | 68 | 4.0 | 10.0 | 0.00 | 0.75 | 0.00 | 62 | 1011.2 |
| 20260501235556 | 67 | 156 | 2.0 | 11.0 | 0.00 | 0.75 | 0.00 | 56 | 1011.1 |
| 20260501235104 | 67 | 140 | 2.0 | 11.0 | 0.00 | 0.75 | 0.00 | 57 | 1011.0 |
| 20260501234613 | 66 | 127 | 4.0 | 6.0 | 0.00 | 0.75 | 0.00 | 60 | 1011.1 |
| 20260501234056 | 65 | 110 | 2.0 | 6.0 | 0.00 | 0.75 | 0.00 | 66 | 1011.0 |
| 20260501233627 | 65 | 32 | 4.0 | 6.0 | 0.00 | 0.75 | 0.00 | 64 | 1011.0 |
| 20260501233115 | 66 | 75 | 2.0 | 6.0 | 0.00 | 0.75 | 0.00 | 60 | 1010.9 |
| 20260501232618 | 66 | 81 | 1.0 | 5.0 | 0.00 | 0.75 | 0.00 | 60 | 1011.0 |
| 20260501232106 | 65 | 141 | 2.0 | 5.0 | 0.00 | 0.75 | 0.00 | 60 | 1011.1 |
| 20260501231611 | 65 | 96 | 1.0 | 4.0 | 0.00 | 0.75 | 0.00 | 61 | 1011.0 |
| 20260501231110 | 64 | 133 | 1.0 | 5.0 | 0.00 | 0.75 | 0.00 | 61 | 1010.9 |
| 20260501230552 | 64 | 146 | 2.0 | 5.0 | 0.00 | 0.75 | 0.00 | 63 | 1010.9 |
| 20260501225614 | 63 | 110 | 2.0 | 4.0 | 0.00 | 1.85 | 0.00 | 68 | 1010.9 |
| 20260501225056 | 63 | 122 | 1.0 | 4.0 | 0.00 | 1.85 | 0.00 | 72 | 1010.8 |
| 20260501224605 | 63 | 163 | 0.0 | 1.0 | 0.00 | 1.85 | 0.00 | 74 | 1010.8 |
| 20260501224133 | 62 | 169 | 0.0 | 1.0 | 0.00 | 1.85 | 0.00 | 75 | 1010.8 |
| 20260501223556 | 61 | 171 | 0.0 | 0.0 | 0.00 | 1.85 | 0.00 | 79 | 1010.7 |
| 20260501223105 | 61 | 171 | 0.0 | 0.0 | 0.00 | 1.85 | 0.00 | 80 | 1010.5 |
| 20260501222613 | 59 | 171 | 0.0 | 1.0 | 0.00 | 1.85 | 0.00 | 83 | 1010.5 |
| 20260501222058 | 58 | 187 | 0.0 | 1.0 | 0.00 | 1.85 | 0.00 | 84 | 1010.5 |
| 20260501221629 | 57 | 187 | 0.0 | 2.0 | 0.00 | 1.85 | 0.00 | 86 | 1010.5 |
| 20260501221121 | 56 | 188 | 1.0 | 2.0 | 0.00 | 1.85 | 0.00 | 87 | 1010.4 |
| 20260501220618 | 56 | 131 | 0.0 | 1.0 | 0.00 | 1.85 | 0.00 | 88 | 1010.6 |
| 20260501220101 | 55 | 131 | 0.0 | 0.0 | 0.00 | 1.89 | 0.00 | 90 | 1010.6 |
| 20260501215610 | 55 | 131 | 0.0 | 1.0 | 0.00 | 1.89 | 0.00 | 90 | 1010.4 |
| 20260501215052 | 53 | 131 | 0.0 | 1.0 | 0.00 | 1.89 | 0.00 | 90 | 1010.3 |
| 20260501214601 | 53 | 169 | 0.0 | 0.0 | 0.00 | 1.89 | 0.00 | 89 | 1010.3 |
| 20260501214114 | 52 | 177 | 0.0 | 0.0 | 0.00 | 1.89 | 0.00 | 90 | 1010.3 |
| 20260501213601 | 52 | 177 | 0.0 | 0.0 | 0.00 | 1.89 | 0.00 | 90 | 1010.4 |
| 20260501213110 | 51 | 177 | 0.0 | 0.0 | 0.00 | 1.89 | 0.00 | 89 | 1010.5 |
| 20260501212614 | 51 | 177 | 0.0 | 0.0 | 0.00 | 1.89 | 0.00 | 89 | 1010.3 |
| 20260501212052 | 51 | 177 | 0.0 | 0.0 | 0.00 | 1.89 | 0.00 | 89 | 1010.1 |
| 20260501211559 | 51 | 177 | 0.0 | 0.0 | 0.00 | 1.89 | 0.00 | 89 | 1010.1 |
| 20260501211110 | 51 | 183 | 0.0 | 0.0 | 0.00 | 1.89 | 0.00 | 89 | 1009.9 |
| 20260501210613 | 51 | 183 | 0.0 | 3.0 | 0.00 | 1.89 | 0.00 | 89 | 1009.9 |
| 20260501210103 | 51 | 183 | 0.0 | 3.0 | 0.00 | 1.89 | 0.00 | 89 | 1009.9 |
| 20260501205605 | 51 | 171 | 0.0 | 1.0 | 0.00 | 1.89 | 0.00 | 88 | 1009.9 |
| 20260501205137 | 51 | 171 | 0.0 | 1.0 | 0.00 | 1.89 | 0.00 | 89 | 1010.0 |
| 20260501204600 | 51 | 170 | 0.0 | 1.0 | 0.00 | 1.89 | 0.00 | 88 | 1010.0 |
| 20260501204106 | 51 | 172 | 0.0 | 2.0 | 0.00 | 1.89 | 0.00 | 88 | 1010.0 |
| 20260501203636 | 51 | 172 | 1.0 | 2.0 | 0.00 | 1.89 | 0.00 | 88 | 1010.0 |
| 20260501203058 | 51 | 164 | 0.0 | 1.0 | 0.00 | 1.89 | 0.00 | 88 | 1009.9 |
| 20260501202608 | 51 | 164 | 0.0 | 0.0 | 0.00 | 1.89 | 0.00 | 88 | 1009.9 |
| 20260501202051 | 51 | 164 | 0.0 | 0.0 | 0.00 | 1.89 | 0.00 | 88 | 1009.9 |
| 20260501201552 | 51 | 164 | 0.0 | 1.0 | 0.00 | 1.89 | 0.00 | 88 | 1009.8 |
| 20260501201054 | 52 | 164 | 0.0 | 1.0 | 0.00 | 1.89 | 0.00 | 88 | 1009.9 |
| 20260501200602 | 52 | 164 | 0.0 | 0.0 | 0.00 | 1.89 | 0.00 | 88 | 1009.9 |
| 20260501200110 | 52 | 164 | 0.0 | 1.0 | 0.00 | 1.89 | 0.00 | 88 | 1009.8 |
| 20260501195552 | 52 | 164 | 1.0 | 1.0 | 0.00 | 1.89 | 0.00 | 88 | 1009.8 |
| 20260501195102 | 52 | 164 | 0.0 | 2.0 | 0.00 | 1.89 | 0.00 | 88 | 1009.7 |
| 20260501194611 | 52 | 164 | 1.0 | 2.0 | 0.00 | 1.89 | 0.00 | 88 | 1009.7 |
| 20260501194053 | 52 | 163 | 1.0 | 2.0 | 0.00 | 1.89 | 0.00 | 88 | 1009.6 |
| 20260501193553 | 52 | 161 | 1.0 | 1.0 | 0.00 | 1.89 | 0.00 | 88 | 1009.7 |
| 20260501193105 | 52 | 161 | 1.0 | 2.0 | 0.00 | 1.89 | 0.00 | 88 | 1009.6 |
| 20260501192612 | 52 | 167 | 1.0 | 3.0 | 0.00 | 1.89 | 0.00 | 88 | 1009.5 |
| 20260501192116 | 52 | 176 | 2.0 | 2.0 | 0.00 | 1.89 | 0.00 | 87 | 1009.6 |
| 20260501191556 | 52 | 165 | 1.0 | 2.0 | 0.00 | 1.89 | 0.00 | 87 | 1009.6 |
| 20260501191104 | 52 | 164 | 1.0 | 2.0 | 0.00 | 1.89 | 0.00 | 87 | 1009.6 |
| 20260501190615 | 53 | 164 | 1.0 | 1.0 | 0.00 | 1.89 | 0.00 | 87 | 1009.5 |
| 20260501190056 | 53 | 164 | 1.0 | 1.0 | 0.00 | 1.93 | 0.00 | 87 | 1009.6 |
| 20260501185605 | 53 | 164 | 0.0 | 2.0 | 0.00 | 1.93 | 0.00 | 86 | 1009.5 |
| 20260501185112 | 53 | 164 | 1.0 | 2.0 | 0.00 | 1.93 | 0.00 | 86 | 1009.6 |
| 20260501184615 | 53 | 170 | 1.0 | 2.0 | 0.00 | 1.93 | 0.00 | 85 | 1009.6 |
| 20260501184104 | 53 | 160 | 1.0 | 2.0 | 0.00 | 1.93 | 0.00 | 85 | 1009.6 |
| 20260501183610 | 53 | 150 | 1.0 | 1.0 | 0.00 | 1.93 | 0.00 | 85 | 1009.6 |
| 20260501183111 | 54 | 150 | 0.0 | 1.0 | 0.00 | 1.93 | 0.00 | 84 | 1009.7 |
| 20260501182555 | 54 | 150 | 0.0 | 1.0 | 0.00 | 1.93 | 0.00 | 84 | 1009.7 |
| 20260501182104 | 54 | 150 | 0.0 | 1.0 | 0.00 | 1.93 | 0.00 | 83 | 1009.5 |
| 20260501181614 | 55 | 150 | 0.0 | 1.0 | 0.00 | 1.93 | 0.00 | 83 | 1009.5 |
| 20260501180614 | 55 | 169 | 1.0 | 1.0 | 0.00 | 1.93 | 0.00 | 82 | 1009.7 |
| 20260501180056 | 55 | 169 | 0.0 | 0.0 | 0.00 | 2.01 | 0.00 | 81 | 1009.5 |
| 20260501175606 | 56 | 169 | 0.0 | 2.0 | 0.00 | 2.01 | 0.00 | 80 | 1009.4 |
| 20260501175115 | 56 | 169 | 1.0 | 2.0 | 0.00 | 2.01 | 0.00 | 79 | 1009.5 |
| 20260501174557 | 57 | 158 | 1.0 | 2.0 | 0.00 | 2.01 | 0.00 | 78 | 1009.3 |